Simultaneous Nadir Overpasses (SNOs) Predictions

Prediction of SNOs between NOAA-19 and TERRA Satellite Orbit:

Table of predicted SNOs for the next 14.0 days since TLE Epoch: 7/30/2022
Index Date (NOAA-19) Time (NOAA-19) Lat,Lon (NOAA-19) SZA (NOAA-19 ) Date (TERRA) Time (TERRA) Lat,Lon (TERRA) SZA (TERRA ) Distance(km) Time Diff (sec)
1 07/31/2022 13:33:59 80.83, 12.18 64.28 07/31/2022 13:34:32 80.82, 12.26 64.29 2.11 33
2 07/31/2022 14:25:00 -80.82, 179.81 115.69 07/31/2022 14:23:59 -80.81, 179.84 115.72 1.26 61
3 08/02/2022 19:57:51 80.82, -83.37 64.89 08/02/2022 19:57:40 80.83, -83.38 64.89 0.85 11
4 08/05/2022 01:30:48 -80.83, 13.19 114.54 08/05/2022 01:31:22 -80.84, 13.30 114.51 2.24 34
5 08/05/2022 02:21:44 80.82,-179.30 65.49 08/05/2022 02:20:49 80.81,-179.38 65.45 1.75 55
6 08/07/2022 07:54:41 -80.83, -82.59 113.90 08/07/2022 07:54:31 -80.83, -82.68 113.91 1.73 10
7 08/09/2022 13:27:31 80.83, 13.95 66.73 08/09/2022 13:28:12 80.84, 14.00 66.75 1.00 41
8 08/09/2022 14:18:34 -80.83,-178.41 113.23 08/09/2022 14:17:39 -80.84,-178.33 113.24 2.03 55



Historial Predications of SNOs between NOAA-19 and TERRA
